World > North America > United States > Utah

Hourly Burbank, UT Regional Weather

Feedback E-mail the Weather

Quick WX

Burbank, UT Weather Maps

°F °C°F °C
Burbank Weather Map
UTC Time: 6/29/2022, 19:09
Your Time:

Burbank, UT Regional Weather

Expires:202206291900;;396612
ASUS45 KSLC 291810
RWRUT 

UTAH REGIONAL WEATHER ROUNDUP
NATIONAL WEATHER SERVICE SALT LAKE CITY UT
1200 PM MDT WED JUN 29 2022


UTZ121>131-291900-

SOUTHERN UTAH
  
CITY           SKY/WX    TMP DP  RH WIND       PRES   REMARKS
BRYCE CANYON   MOSUNNY   77  43  29 VRB3      30.42F                  
CEDAR CITY     MOSUNNY   89  45  21 SW17      30.23F                  
MILFORD        MOSUNNY   88  46  23 S12       30.17F                  
PANGUITCH      MOSUNNY   72  50  46 NW10      30.37F                  
ST GEORGE      MOCLDY    97  50  20 NW9       30.02F HX  94           
HANKSVILLE     PTSUNNY   90  36  14 W6        30.18F                  
BLANDING         N/A     82  44  26 SE10G21   30.39F                  

$$

REGIONAL REPORTS     COLORADO/ARIZONA
  
CITY           SKY/WX    TMP DP  RH WIND       PRES   REMARKS
CRAIG, CO      PTSUNNY   77  45  32 SW9       30.31F                  
GRAND JUNCTION MOSUNNY   89  39  17 CALM      30.19F                  
RIFLE, CO      MOSUNNY   82  43  25 VRB3      30.26F                  
MONTROSE, CO   MOSUNNY   85  42  22 NE8       30.28F                  
CORTEZ, CO     SUNNY     83  44  25 VRB3      30.32F                  
COLORADO CITY    N/A     97  46  17 S14       30.22F HX  93           
PAGE, AZ       SUNNY     94  43  17 MISG      30.16S HX  90           
GRAND CANYON   MOSUNNY   81  47  30 S9        30.37F                  
KINGMAN, AZ    SUNNY     97  50  20 SW18G33   30.11F HX  94           
FLAGSTAFF, AZ  MOSUNNY   78  48  34 W8        30.41F                  

$$

REGIONAL REPORTS    NEVADA/IDAHO/WYOMING
  
CITY           SKY/WX    TMP DP  RH WIND       PRES   REMARKS
LAS VEGAS, NV  MOSUNNY  103  47  15 SW14G25   29.97F HX  99           
ELY, NY        PTSUNNY   83  36  18 SW18G25   30.24F                  
ELKO, NV       SUNNY     84  28  13 SW8       30.18S                  
POCATELLO, ID  PTSUNNY   72  42  34 SW17      30.17S                  
BURLEY, ID     PTSUNNY   70  41  34 W10G24    30.16R                  
EVANSTON, WY   MOSUNNY   79  42  26 SW17G26   30.30F                  
ROCK SPRINGS,  MOSUNNY   81  41  24 W23G31    30.27F                  
KEMMERER, WY   MOSUNNY   73  32  21 SW39G48   30.30S                  

$$
  

SKY/WX - Weather  TMP - Temperature  DP - Dew Point  RH - Humidity
WIND - Wind Direction/Speed PRES - Barometric Pressure VSB - Visibility
WCI - Wind Chill Index E13G22 Wind - East Wind 13 mph/Gusts of 22 mph

Trending Headlines

Burbank Radar Loop



Burbank Quick Facts


National Two Day Weather Forecast


E-mail the Burbank Weather Forecast

Voice your opinion or tell us about page issues...